GPS BIIRM-5 (PRN 29)

Last updated on Tue Oct 14 2025 00:03:16 GMT+0000 (Coordinated Universal Time)

1 32384U 07062A 25286.48715156 -.00000004 00000+0 00000+0 0 9998 2 32384 55.2326 284.0616 0032394 163.8195 9.2466 2.00574310130560
UTC large
Height (km)
Speed (km/s)
/
Latitude / Longitude
Inclination (degrees)
Orbital Period (minutes)
Azimuth
Elevation
Range (km)
Doppler Factor

Next 0 passes for location: London (51.5072 / 0.1276)

Sorry there are no passes over London.